Grosse Ile, MI

12:00 PM EDT on May 26, 2017 (GMT -0400)
Grosse Ile Municipal

Weather History for KONZ - September, 2012

Change the Weather History Date:

Friday, September 7, 2012

  Actual Average (KDTW) Record (KDTW)
Temperature  
Mean Temperature 71 °F -  
Max Temperature 80 °F 78 °F 97 °F (1939)
Min Temperature 62 °F 55 °F 43 °F (1986)
Cooling Degree Days 6    
Growing Degree Days 21 (Base 50)    
Moisture  
Dew Point 63 °F    
Average Humidity 73    
Maximum Humidity 94    
Minimum Humidity 44    
Precipitation  
Precipitation 0.00 in - - ()
Sea Level Pressure  
Sea Level Pressure 29.82 in    
Wind  
Wind Speed 5 mph (SW)    
Max Wind Speed 16 mph    
Max Gust Speed 20 mph    
Visibility 10 miles    
Events Rain    
Averages and records for this station are not official NWS values.
T = Trace of Precipitation, MM = Missing Value Source: NWS Daily Summary

Daily Weather History Graph

Daily Weather History Graph

Search for Another Location

Airport or City:

Trip Planner

Search our weather history database for the weather conditions in past years. The results will help you decide how hot, cold, wet, or windy it might be!

Date:

Astronomy

Sep. 07, 2012 Rise Set
Actual Time 7:04 AM EDT 7:55 PM EDT
Civil Twilight 6:36 AM EDT 8:23 PM EDT
Nautical Twilight 6:02 AM EDT 8:57 PM EDT
Astronomical Twilight 5:27 AM EDT 9:32 PM EDT
Moon 11:42 PM EDT (9/7) 2:03 PM EDT (9/7)
Length of Visible Light 13h 47m
Length of Day
12h 50m
Waning Gibbous, 58% of the Moon is Illuminated
Sep 7
Waning Gibbous
Sep 8
Last Quarter
Sep 15
New
Sep 22
First Quarter
Sep 29
Full

Hourly Weather History & Observations

Time (EDT) Temp. Heat Index Dew Point Humidity Pressure Visibility Wind Dir Wind Speed Gust Speed Precip Events Conditions
12:34 AM 73.4 °F - 69.8 °F 88% 29.89 in 10.0 mi WSW 4.6 mph - N/A   Clear
12:54 AM 71.6 °F - 66.2 °F 83% 29.88 in 10.0 mi West 4.6 mph - N/A   Clear
1:14 AM 71.6 °F - 66.2 °F 83% 29.88 in 10.0 mi West 4.6 mph - N/A   Clear
1:34 AM 71.6 °F - 64.4 °F 78% 29.88 in 10.0 mi WNW 5.8 mph - N/A   Clear
1:54 AM 71.6 °F - 62.6 °F 73% 29.88 in 10.0 mi WNW 6.9 mph - N/A   Clear
2:14 AM 71.6 °F - 62.6 °F 73% 29.87 in 10.0 mi WNW 5.8 mph - N/A   Clear
2:34 AM 69.8 °F - 62.6 °F 78% 29.87 in 10.0 mi WNW 5.8 mph - N/A   Clear
2:54 AM 69.8 °F - 62.6 °F 78% 29.88 in 10.0 mi West 4.6 mph - N/A   Clear
3:14 AM 68.0 °F - 62.6 °F 83% 29.88 in 10.0 mi West 4.6 mph - N/A   Clear
3:34 AM 68.0 °F - 62.6 °F 83% 29.88 in 10.0 mi West 5.8 mph - N/A   Clear
3:55 AM 66.2 °F - 62.6 °F 88% 29.88 in 10.0 mi West 4.6 mph - N/A   Clear
4:14 AM 66.2 °F - 60.8 °F 83% 29.87 in 10.0 mi Calm Calm - N/A   Clear
4:34 AM 66.2 °F - 62.6 °F 88% 29.88 in 10.0 mi WNW 3.5 mph - N/A   Clear
4:55 AM 66.2 °F - 60.8 °F 83% 29.88 in 10.0 mi West 5.8 mph - N/A   Clear
5:14 AM 64.4 °F - 60.8 °F 88% 29.89 in 10.0 mi West 6.9 mph - N/A   Clear
5:34 AM 64.4 °F - 60.8 °F 88% 29.88 in 10.0 mi West 5.8 mph - N/A   Clear
5:54 AM 64.4 °F - 60.8 °F 88% 29.87 in 10.0 mi Calm Calm - N/A   Clear
6:14 AM 64.4 °F - 60.8 °F 88% 29.87 in 10.0 mi Calm Calm - N/A   Clear
6:34 AM 64.4 °F - 60.8 °F 88% 29.87 in 10.0 mi Calm Calm - N/A   Clear
6:54 AM 62.6 °F - 59.0 °F 88% 29.87 in 10.0 mi Calm Calm - N/A   Clear
7:14 AM 62.6 °F - 59.0 °F 88% 29.87 in 10.0 mi West 4.6 mph - N/A   Clear
7:34 AM 62.6 °F - 60.8 °F 94% 29.87 in 10.0 mi Calm Calm - N/A   Clear
7:54 AM 64.4 °F - 60.8 °F 88% 29.88 in 10.0 mi West 5.8 mph - N/A   Clear
8:14 AM 64.4 °F - 60.8 °F 88% 29.88 in 10.0 mi West 4.6 mph - N/A   Clear
8:34 AM 64.4 °F - 60.8 °F 88% 29.89 in 10.0 mi Calm Calm - N/A   Clear
8:54 AM 66.2 °F - 60.8 °F 83% 29.90 in 10.0 mi Calm Calm - N/A   Clear
9:14 AM 66.2 °F - 62.6 °F 88% 29.90 in 10.0 mi Calm Calm - N/A   Clear
9:34 AM 66.2 °F - 62.6 °F 88% 29.90 in 10.0 mi West 3.5 mph - N/A   Clear
9:54 AM 68.0 °F - 62.6 °F 83% 29.90 in 10.0 mi Calm Calm - N/A   Clear
10:14 AM 69.8 °F - 62.6 °F 78% 29.91 in 10.0 mi Calm Calm - N/A   Clear
10:34 AM 71.6 °F - 62.6 °F 73% 29.91 in 10.0 mi WSW 4.6 mph - N/A   Clear
10:54 AM 73.4 °F - 64.4 °F 73% 29.91 in 10.0 mi WSW 3.5 mph - N/A   Clear
11:15 AM 75.2 °F - 62.6 °F 65% 29.91 in 10.0 mi SW 4.6 mph - N/A   Clear
11:34 AM 75.2 °F - 62.6 °F 65% 29.90 in 10.0 mi WSW 4.6 mph - N/A   Clear
11:54 AM 77.0 °F - 62.6 °F 61% 29.90 in 10.0 mi SW 5.8 mph - N/A   Clear
12:14 PM 78.8 °F - 59.0 °F 51% 29.88 in 10.0 mi SW 4.6 mph - N/A   Clear
12:34 PM 78.8 °F - 59.0 °F 51% 29.88 in 10.0 mi WSW 4.6 mph - N/A   Clear
12:54 PM 78.8 °F - 57.2 °F 47% 29.88 in 10.0 mi SW 4.6 mph - N/A   Clear
1:14 PM 78.8 °F - 55.4 °F 44% 29.88 in 10.0 mi SW 6.9 mph - N/A   Scattered Clouds
1:34 PM 78.8 °F - 57.2 °F 47% 29.86 in 10.0 mi Calm Calm - N/A   Clear
1:54 PM 78.8 °F - 57.2 °F 47% 29.85 in 10.0 mi Calm Calm - N/A   Clear
2:14 PM 78.8 °F - 59.0 °F 51% 29.84 in 10.0 mi Calm Calm - N/A   Clear
2:34 PM 78.8 °F - 57.2 °F 47% 29.84 in 10.0 mi SSE 5.8 mph - N/A   Clear
2:54 PM 77.0 °F - 62.6 °F 61% 29.84 in 10.0 mi SSE 4.6 mph - N/A   Clear
3:14 PM 78.8 °F - 64.4 °F 61% 29.82 in 10.0 mi SE 3.5 mph - N/A   Clear
3:59 PM 78.8 °F - 62.6 °F 57% 29.78 in 10.0 mi East 4.6 mph - N/A   Scattered Clouds
4:14 PM 80.6 °F 81.5 °F 60.8 °F 51% 29.78 in 10.0 mi Calm Calm - N/A   Scattered Clouds
4:34 PM 80.6 °F 81.5 °F 60.8 °F 51% 29.79 in 10.0 mi Calm Calm - N/A   Mostly Cloudy
4:54 PM 80.6 °F 81.8 °F 62.6 °F 54% 29.78 in 10.0 mi SSE 4.6 mph - N/A   Mostly Cloudy
5:14 PM 78.8 °F - 64.4 °F 61% 29.77 in 10.0 mi SE 4.6 mph - N/A   Scattered Clouds
5:34 PM 77.0 °F - 66.2 °F 69% 29.76 in 10.0 mi SE 5.8 mph - N/A   Clear
5:54 PM 77.0 °F - 68.0 °F 74% 29.75 in 10.0 mi SE 6.9 mph - N/A   Clear
6:14 PM 78.8 °F - 69.8 °F 74% 29.73 in 10.0 mi SE 8.1 mph - N/A   Clear
6:34 PM 78.8 °F - 68.0 °F 69% 29.73 in 10.0 mi SSE 8.1 mph - N/A   Clear
6:54 PM 77.0 °F - 68.0 °F 74% 29.73 in 10.0 mi SSE 8.1 mph - N/A   Scattered Clouds
7:14 PM 77.0 °F - 66.2 °F 69% 29.72 in 10.0 mi SSE 10.4 mph - N/A   Scattered Clouds
7:34 PM 77.0 °F - 66.2 °F 69% 29.71 in 10.0 mi SSE 9.2 mph - N/A   Clear
7:54 PM 77.0 °F - 66.2 °F 69% 29.70 in 10.0 mi SSE 10.4 mph - N/A   Clear
8:14 PM 77.0 °F - 66.2 °F 69% 29.69 in 10.0 mi SSE 11.5 mph - N/A   Scattered Clouds
8:34 PM 77.0 °F - 69.8 °F 78% 29.69 in 10.0 mi South 12.7 mph - N/A   Mostly Cloudy
8:54 PM 77.0 °F - 68.0 °F 74% 29.69 in 10.0 mi South 16.1 mph - N/A   Mostly Cloudy
9:14 PM 75.2 °F - 68.0 °F 78% 29.68 in 10.0 mi South 13.8 mph - N/A Rain Rain
9:34 PM 75.2 °F - 66.2 °F 73% 29.69 in 10.0 mi South 11.5 mph 17.3 mph N/A Rain Rain
9:54 PM 75.2 °F - 66.2 °F 73% 29.69 in 10.0 mi South 9.2 mph - N/A   Scattered Clouds
10:14 PM 75.2 °F - 68.0 °F 78% 29.70 in 10.0 mi SW 6.9 mph - N/A Rain Rain
10:34 PM 73.4 °F - 66.2 °F 78% 29.70 in 10.0 mi WSW 10.4 mph 17.3 mph N/A Rain Light Rain
10:54 PM 73.4 °F - 66.2 °F 78% 29.69 in 10.0 mi WSW 12.7 mph 19.6 mph N/A Rain Light Rain
11:14 PM 71.6 °F - 66.2 °F 83% 29.69 in 10.0 mi WSW 6.9 mph - N/A Rain Rain
11:54 PM 69.8 °F - 66.2 °F 88% 29.68 in 10.0 mi WSW 5.8 mph - N/A   Drizzle